Pagina principale
METAR-TAF:

METAR-TAF

Aeroporti :

Chatham Municipal Airport

Chatham, Massachusetts, Stati Uniti

latitudine: 41-41-15N, longitudine: 069-59-36W, altezza: 20 m

Osservazione

Il bollettino è stato emesso 21 minuti fa, alle 22:11 UTC
Vento 5 kt da direzioni variabili
Temperature 7°C
Umidità 93%
Pressione 1007 hPa
Visibilità: 14.5 km
Cielo coperto ad un'altezza di 500 ft

METAR: KCQX 202211Z AUTO VRB05KT 9SM OVC005 07/06 A2975 RMK AO2 T00720061

Ora: 17:32 (22:32 UTC)


TAF: mancante

Osservazioni e previsioni meteorologiche di più di 4000 aeroporti (messaggi METAR e TAF).

Le stazioni disponibili sono rappresentate dai dischi gialli e rossi sulla carta.

Puntare il mouse per vedere il nome della stazione.

Clicca sopra per visualizzare le osservazioni e previsioni meteorologiche.

Per cambiare la mappa : fare clic sui pulsanti verdi con una croce nera per ingrandire, il pulsante verde con un trattino per diminuire, o sulla freccia verde per le mappe adiacenti.


METAR-TAF: